QPF
0.00 0.00 0.00 0.00 0.00 0.00 0.00 0.00 0.00 0.00 0.00 0.00 0.00 0.00 0.00 0.00 0.00 0.01 0.01 0.01 0.01 0.01 0.01 0.01 0.01 0.01 0.02 0.02 0.02 0.03 0.04 0.06 0.07 0.05 0.04 0.04 0.05 0.05 0.07 0.09 0.10 0.12 0.13
0.00 0.00 0.00 0.00 0.00 0.00 0.00 0.00 0.00 0.00 0.00 0.00 0.00 0.00 0.00 0.00 0.00 0.01 0.01 0.01 0.01 0.01 0.01 0.01 0.01 0.02 0.02 0.02 0.03 0.03 0.04 0.06 0.08 0.08 0.07 0.06 0.06 0.07 0.08 0.09 0.10 0.11 0.11
0.00 0.00 0.00 0.00 0.00 0.00 0.00 0.00 0.00 0.00 0.00 0.00 0.00 0.00 0.00 0.00 0.00 0.01 0.01 0.01 0.01 0.01 0.01 0.01 0.01 0.02 0.02 0.02 0.03 0.04 0.06 0.07 0.10 0.11 0.10 0.09 0.08 0.08 0.09 0.10 0.10 0.10 0.10
0.00 0.00 0.00 0.00 0.00 0.00 0.00 0.00 0.00 0.00 0.00 0.00 0.00 0.00 0.00 0.00 0.00 0.01 0.01 0.01 0.01 0.01 0.01 0.01 0.01 0.02 0.02 0.03 0.04 0.04 0.05 0.07 0.09 0.11 0.11 0.10 0.10 0.09 0.09 0.10 0.10 0.09 0.09
0.00 0.00 0.00 0.00 0.00 0.00 0.00 0.00 0.00 0.00 0.00 0.00 0.00 0.00 0.00 0.00 0.00 0.00 0.00 0.01 0.01 0.01 0.01 0.01 0.01 0.02 0.03 0.03 0.04 0.04 0.06 0.08 0.10 0.11 0.11 0.10 0.09 0.09 0.08 0.09 0.10 0.12 0.11
0.00 0.00 0.00 0.00 0.00 0.00 0.00 0.00 0.00 0.00 0.00 0.00 0.00 0.00 0.00 0.00 0.01 0.01 0.01 0.01 0.01 0.01 0.01 0.01 0.02 0.03 0.03 0.05 0.06 0.07 0.08 0.09 0.09 0.10 0.10 0.09 0.09 0.09 0.10 0.11 0.13 0.14 0.13
0.00 0.00 0.00 0.00 0.00 0.00 0.00 0.00 0.00 0.00 0.00 0.00 0.00 0.00 0.00 0.01 0.01 0.01 0.01 0.01 0.01 0.01 0.01 0.01 0.01 0.02 0.03 0.04 0.05 0.07 0.08 0.09 0.09 0.09 0.09 0.09 0.10 0.11 0.12 0.14 0.14 0.12 0.10
0.00 0.00 0.00 0.00 0.00 0.00 0.00 0.00 0.00 0.00 0.00 0.00 0.00 0.00 0.00 0.00 0.01 0.01 0.01 0.01 0.01 0.01 0.01 0.01 0.02 0.02 0.02 0.03 0.03 0.04 0.05 0.06 0.07 0.08 0.07 0.08 0.09 0.10 0.10 0.11 0.11 0.10 0.09
0.00 0.00 0.00 0.00 0.00 0.00 0.00 0.00 0.00 0.00 0.00 0.00 0.00 0.00 0.00 0.00 0.01 0.01 0.01 0.00 0.00 0.00 0.00 0.01 0.01 0.02 0.03 0.03 0.03 0.03 0.04 0.04 0.05 0.05 0.05 0.06 0.07 0.08 0.07 0.07 0.08 0.07 0.07
0.00 0.00 0.00 0.00 0.00 0.00 0.00 0.00 0.00 0.00 0.00 0.00 0.00 0.00 0.00 0.00 0.00 0.01 0.00 0.00 0.00 0.00 0.00 0.01 0.01 0.01 0.02 0.02 0.02 0.02 0.03 0.02 0.02 0.03 0.04 0.04 0.04 0.05 0.05 0.04 0.04 0.04 0.04
0.00 0.00 0.00 0.00 0.00 0.00 0.00 0.00 0.00 0.00 0.00 0.00 0.00 0.00 0.00 0.00 0.00 0.00 0.00 0.00 0.00 0.00 0.00 0.00 0.01 0.02 0.01 0.01 0.01 0.01 0.02 0.02 0.02 0.02 0.03 0.03 0.03 0.03 0.03 0.03 0.03 0.02 0.02
0.00 0.00 0.00 0.00 0.00 0.00 0.00 0.00 0.00 0.00 0.00 0.00 0.00 0.00 0.00 0.00 0.00 0.00 0.00 0.00 0.00 0.00 0.00 0.00 0.00 0.01 0.01 0.01 0.01 0.02 0.02 0.02 0.02 0.02 0.02 0.02 0.02 0.02 0.02 0.02 0.02 0.02 0.02
0.00 0.00 0.00 0.00 0.00 0.00 0.00 0.00 0.00 0.00 0.00 0.00 0.00 0.00 0.00 0.00 0.00 0.01 0.01 0.01 0.01 0.00 0.00 0.01 0.01 0.01 0.01 0.01 0.02 0.02 0.02 0.02 0.02 0.02 0.02 0.02 0.01 0.02 0.02 0.02 0.02 0.02 0.02
0.00 0.00 0.00 0.00 0.00 0.00 0.00 0.00 0.00 0.00 0.00 0.00 0.00 0.00 0.00 0.00 0.00 0.00 0.00 0.00 0.01 0.01 0.01 0.01 0.01 0.01 0.01 0.01 0.01 0.01 0.01 0.01 0.01 0.01 0.01 0.01 0.01 0.02 0.02 0.01 0.02 0.02 0.02
0.00 0.00 0.00 0.00 0.00 0.00 0.00 0.00 0.00 0.00 0.00 0.00 0.00 0.00 0.00 0.00 0.00 0.00 0.00 0.00 0.00 0.00 0.00 0.00 0.00 0.01 0.01 0.01 0.01 0.01 0.01 0.01 0.01 0.01 0.01 0.01 0.01 0.01 0.01 0.01 0.02 0.02 0.02
0.00 0.00 0.00 0.00 0.00 0.00 0.00 0.00 0.01 0.01 0.01 0.00 0.00 0.00 0.00 0.00 0.00 0.00 0.01 0.01 0.01 0.01 0.01 0.00 0.00 0.00 0.00 0.00 0.01 0.01 0.01 0.01 0.01 0.01 0.01 0.01 0.01 0.01 0.01 0.01 0.02 0.02 0.02
0.01 0.01 0.01 0.01 0.01 0.01 0.01 0.00 0.01 0.01 0.01 0.01 0.01 0.01 0.01 0.01 0.01 0.01 0.01 0.01 0.01 0.01 0.00 0.00 0.00 0.00 0.00 0.00 0.00 0.00 0.00 0.00 0.00 0.01 0.01 0.01 0.01 0.01 0.01 0.01 0.01 0.01 0.01
0.01 0.01 0.01 0.01 0.01 0.01 0.01 0.01 0.01 0.01 0.01 0.01 0.01 0.01 0.01 0.01 0.01 0.01 0.01 0.01 0.01 0.01 0.00 0.00 0.00 0.00 0.00 0.00 0.00 0.00 0.01 0.01 0.01 0.01 0.01 0.01 0.01 0.01 0.01 0.01 0.01 0.01 0.01
0.02 0.02 0.02 0.01 0.01 0.01 0.01 0.01 0.01 0.01 0.01 0.01 0.01 0.01 0.01 0.01 0.01 0.01 0.01 0.01 0.00 0.00 0.00 0.01 0.01 0.01 0.01 0.00 0.01 0.00 0.01 0.01 0.01 0.01 0.01 0.01 0.01 0.01 0.01 0.01 0.01 0.01 0.01
0.03 0.03 0.03 0.03 0.02 0.02 0.02 0.02 0.02 0.01 0.01 0.01 0.01 0.01 0.01 0.01 0.01 0.01 0.01 0.01 0.01 0.01 0.01 0.01 0.01 0.01 0.01 0.01 0.01 0.01 0.01 0.01 0.01 0.01 0.01 0.01 0.01 0.01 0.01 0.01 0.01 0.01 0.01
0.04 0.05 0.05 0.04 0.04 0.04 0.03 0.03 0.03 0.03 0.02 0.02 0.02 0.02 0.02 0.01 0.01 0.01 0.01 0.01 0.01 0.01 0.01 0.01 0.01 0.01 0.01 0.01 0.01 0.01 0.01 0.01 0.01 0.01 0.01 0.01 0.01 0.01 0.01 0.01 0.01 0.01 0.01
0.06 0.06 0.06 0.06 0.06 0.06 0.06 0.06 0.05 0.04 0.04 0.03 0.03 0.03 0.02 0.02 0.02 0.02 0.02 0.02 0.02 0.01 0.01 0.01 0.01 0.01 0.01 0.01 0.01 0.01 0.01 0.01 0.01 0.01 0.01 0.01 0.01 0.01 0.01 0.01 0.01 0.01 0.01
0.07 0.07 0.07 0.07 0.07 0.07 0.07 0.06 0.06 0.06 0.05 0.04 0.04 0.03 0.03 0.03 0.02 0.02 0.02 0.02 0.02 0.02 0.02 0.02 0.02 0.02 0.01 0.01 0.01 0.01 0.01 0.01 0.01 0.01 0.01 0.01 0.01 0.01 0.01 0.01 0.01 0.01 0.01
0.07 0.07 0.07 0.07 0.07 0.07 0.07 0.07 0.07 0.06 0.06 0.05 0.05 0.04 0.04 0.04 0.03 0.03 0.03 0.03 0.02 0.02 0.02 0.02 0.02 0.02 0.01 0.01 0.01 0.01 0.01 0.01 0.01 0.01 0.01 0.01 0.01 0.01 0.01 0.01 0.01 0.01 0.01
0.07 0.08 0.08 0.08 0.08 0.08 0.07 0.07 0.06 0.06 0.05 0.05 0.04 0.04 0.03 0.03 0.03 0.03 0.03 0.03 0.02 0.02 0.02 0.02 0.01 0.01 0.01 0.01 0.01 0.01 0.01 0.00 0.00 0.00 0.00 0.01 0.01 0.00 0.00 0.00 0.00 0.01 0.01
0.08 0.08 0.08 0.08 0.08 0.08 0.08 0.07 0.07 0.06 0.06 0.05 0.04 0.04 0.04 0.03 0.03 0.02 0.02 0.02 0.02 0.02 0.01 0.01 0.01 0.01 0.01 0.01 0.01 0.00 0.00 0.00 0.00 0.00 0.00 0.00 0.00 0.00 0.00 0.00 0.00 0.00 0.01
MSLP
1009.62 1009.74 1009.81 1009.83 1009.82 1009.82 1009.85 1009.96 1010.19 1010.53 1010.98 1011.51 1012.10 1012.69 1013.26 1013.79 1014.26 1014.69 1015.08 1015.45 1015.83 1016.23 1016.63 1017.02 1017.39 1017.70 1017.93 1018.07 1018.11 1018.08 1018.00 1017.92 1017.87 1017.89 1018.02 1018.26 1018.61 1019.04 1019.55 1020.08 1020.60 1021.10 1021.54
1008.67 1008.76 1008.81 1008.81 1008.78 1008.74 1008.75 1008.83 1009.03 1009.34 1009.78 1010.30 1010.89 1011.50 1012.10 1012.65 1013.16 1013.61 1014.02 1014.41 1014.79 1015.18 1015.57 1015.95 1016.31 1016.61 1016.84 1016.99 1017.07 1017.07 1017.04 1017.00 1017.00 1017.08 1017.26 1017.55 1017.95 1018.43 1018.97 1019.54 1020.09 1020.59 1021.04
1007.71 1007.79 1007.84 1007.84 1007.81 1007.76 1007.75 1007.82 1007.98 1008.26 1008.66 1009.16 1009.74 1010.34 1010.95 1011.52 1012.04 1012.51 1012.93 1013.32 1013.69 1014.06 1014.42 1014.78 1015.11 1015.41 1015.65 1015.82 1015.93 1015.99 1016.03 1016.07 1016.15 1016.30 1016.54 1016.89 1017.34 1017.86 1018.43 1019.00 1019.56 1020.06 1020.50
1006.74 1006.83 1006.90 1006.93 1006.92 1006.89 1006.88 1006.93 1007.07 1007.31 1007.67 1008.12 1008.66 1009.24 1009.82 1010.38 1010.90 1011.37 1011.79 1012.17 1012.52 1012.86 1013.19 1013.52 1013.83 1014.12 1014.37 1014.58 1014.75 1014.88 1015.00 1015.13 1015.30 1015.53 1015.84 1016.24 1016.73 1017.27 1017.85 1018.43 1018.98 1019.47 1019.89
1005.79 1005.90 1006.00 1006.07 1006.10 1006.11 1006.13 1006.18 1006.30 1006.50 1006.81 1007.21 1007.69 1008.22 1008.76 1009.29 1009.78 1010.23 1010.63 1010.99 1011.32 1011.64 1011.94 1012.24 1012.54 1012.83 1013.10 1013.35 1013.57 1013.78 1013.99 1014.21 1014.46 1014.77 1015.14 1015.59 1016.10 1016.65 1017.22 1017.79 1018.32 1018.79 1019.19
1004.84 1004.97 1005.12 1005.25 1005.35 1005.42 1005.48 1005.56 1005.67 1005.85 1006.11 1006.45 1006.86 1007.32 1007.80 1008.28 1008.74 1009.16 1009.53 1009.87 1010.18 1010.47 1010.75 1011.04 1011.33 1011.62 1011.92 1012.20 1012.49 1012.77 1013.05 1013.35 1013.68 1014.04 1014.46 1014.93 1015.45 1016.00 1016.56 1017.10 1017.62 1018.07 1018.46
1003.90 1004.05 1004.25 1004.45 1004.63 1004.79 1004.91 1005.03 1005.17 1005.34 1005.57 1005.85 1006.19 1006.58 1006.99 1007.41 1007.82 1008.20 1008.55 1008.86 1009.16 1009.44 1009.71 1009.99 1010.29 1010.59 1010.91 1011.24 1011.57 1011.91 1012.25 1012.61 1012.99 1013.39 1013.83 1014.31 1014.82 1015.35 1015.89 1016.42 1016.91 1017.36 1017.75
1002.98 1003.13 1003.37 1003.64 1003.91 1004.16 1004.38 1004.57 1004.75 1004.94 1005.15 1005.39 1005.68 1006.01 1006.35 1006.71 1007.07 1007.42 1007.74 1008.04 1008.33 1008.61 1008.89 1009.19 1009.49 1009.82 1010.16 1010.52 1010.88 1011.26 1011.64 1012.03 1012.43 1012.85 1013.30 1013.77 1014.27 1014.78 1015.30 1015.81 1016.29 1016.74 1017.14
1002.06 1002.21 1002.47 1002.81 1003.16 1003.51 1003.82 1004.10 1004.35 1004.58 1004.80 1005.04 1005.29 1005.57 1005.87 1006.18 1006.50 1006.82 1007.13 1007.43 1007.73 1008.02 1008.32 1008.63 1008.96 1009.31 1009.67 1010.04 1010.43 1010.82 1011.22 1011.62 1012.03 1012.45 1012.89 1013.34 1013.82 1014.32 1014.82 1015.32 1015.80 1016.25 1016.67
1001.20 1001.31 1001.57 1001.94 1002.37 1002.80 1003.22 1003.59 1003.92 1004.22 1004.48 1004.72 1004.97 1005.22 1005.49 1005.77 1006.07 1006.37 1006.68 1007.00 1007.31 1007.63 1007.96 1008.30 1008.65 1009.02 1009.39 1009.78 1010.17 1010.57 1010.96 1011.36 1011.76 1012.17 1012.60 1013.04 1013.51 1013.99 1014.48 1014.98 1015.46 1015.93 1016.36
1000.41 1000.46 1000.70 1001.08 1001.55 1002.05 1002.55 1003.02 1003.44 1003.80 1004.11 1004.39 1004.65 1004.90 1005.16 1005.43 1005.72 1006.03 1006.35 1006.68 1007.03 1007.38 1007.74 1008.11 1008.49 1008.87 1009.26 1009.65 1010.04 1010.43 1010.82 1011.21 1011.60 1012.00 1012.41 1012.85 1013.31 1013.78 1014.27 1014.77 1015.26 1015.73 1016.17
999.77 999.73 999.91 1000.26 1000.74 1001.28 1001.84 1002.38 1002.88 1003.31 1003.68 1004.00 1004.29 1004.56 1004.82 1005.10 1005.39 1005.71 1006.05 1006.41 1006.79 1007.18 1007.57 1007.97 1008.37 1008.77 1009.17 1009.56 1009.95 1010.33 1010.71 1011.10 1011.48 1011.88 1012.29 1012.72 1013.18 1013.65 1014.14 1014.64 1015.13 1015.60 1016.04
999.33 999.17 999.26 999.55 1000.00 1000.55 1001.14 1001.72 1002.27 1002.76 1003.18 1003.55 1003.87 1004.16 1004.44 1004.73 1005.04 1005.37 1005.73 1006.12 1006.53 1006.95 1007.38 1007.80 1008.23 1008.64 1009.05 1009.44 1009.83 1010.21 1010.59 1010.96 1011.35 1011.75 1012.17 1012.61 1013.07 1013.54 1014.03 1014.52 1015.00 1015.45 1015.88
999.12 998.84 998.82 999.02 999.40 999.91 1000.49 1001.09 1001.66 1002.19 1002.65 1003.05 1003.40 1003.72 1004.02 1004.32 1004.65 1005.00 1005.38 1005.79 1006.22 1006.66 1007.11 1007.56 1008.00 1008.43 1008.84 1009.24 1009.63 1010.01 1010.39 1010.78 1011.18 1011.59 1012.02 1012.46 1012.92 1013.40 1013.87 1014.34 1014.80 1015.22 1015.62
999.15 998.75 998.60 998.69 998.99 999.43 999.98 1000.56 1001.13 1001.67 1002.16 1002.58 1002.95 1003.29 1003.61 1003.93 1004.26 1004.62 1005.01 1005.44 1005.88 1006.34 1006.80 1007.26 1007.71 1008.14 1008.56 1008.96 1009.36 1009.75 1010.14 1010.54 1010.95 1011.38 1011.82 1012.27 1012.73 1013.19 1013.64 1014.07 1014.49 1014.87 1015.21
999.40 998.87 998.61 998.59 998.79 999.16 999.64 1000.19 1000.75 1001.28 1001.78 1002.21 1002.60 1002.96 1003.29 1003.62 1003.96 1004.32 1004.72 1005.14 1005.59 1006.04 1006.50 1006.96 1007.41 1007.84 1008.26 1008.66 1009.06 1009.47 1009.87 1010.28 1010.71 1011.14 1011.59 1012.03 1012.48 1012.91 1013.32 1013.71 1014.06 1014.38 1014.66
999.78 999.17 998.80 998.69 998.80 999.10 999.52 1000.02 1000.55 1001.08 1001.58 1002.03 1002.43 1002.80 1003.14 1003.48 1003.83 1004.20 1004.59 1005.00 1005.43 1005.87 1006.32 1006.76 1007.19 1007.61 1008.02 1008.43 1008.83 1009.23 1009.65 1010.07 1010.50 1010.93 1011.37 1011.80 1012.21 1012.60 1012.95 1013.27 1013.56 1013.81 1014.02
1000.23 999.56 999.14 998.95 999.00 999.23 999.61 1000.08 1000.59 1001.11 1001.61 1002.07 1002.49 1002.88 1003.24 1003.59 1003.95 1004.31 1004.69 1005.09 1005.50 1005.92 1006.34 1006.75 1007.16 1007.56 1007.95 1008.34 1008.74 1009.14 1009.55 1009.96 1010.39 1010.81 1011.22 1011.61 1011.98 1012.31 1012.60 1012.84 1013.05 1013.22 1013.36
1000.70 1000.01 999.56 999.34 999.35 999.55 999.90 1000.34 1000.85 1001.37 1001.88 1002.36 1002.80 1003.22 1003.61 1003.98 1004.34 1004.71 1005.09 1005.47 1005.85 1006.24 1006.62 1007.00 1007.37 1007.74 1008.11 1008.47 1008.85 1009.23 1009.63 1010.03 1010.42 1010.81 1011.19 1011.53 1011.83 1012.09 1012.31 1012.47 1012.60 1012.69 1012.77
1001.16 1000.50 1000.06 999.84 999.84 1000.03 1000.37 1000.80 1001.31 1001.84 1002.37 1002.87 1003.35 1003.80 1004.22 1004.62 1005.00 1005.38 1005.75 1006.11 1006.47 1006.83 1007.17 1007.51 1007.84 1008.17 1008.51 1008.84 1009.19 1009.55 1009.91 1010.27 1010.64 1010.98 1011.30 1011.58 1011.82 1012.01 1012.14 1012.23 1012.28 1012.30 1012.32
1001.65 1001.04 1000.64 1000.45 1000.47 1000.66 1000.99 1001.43 1001.94 1002.48 1003.03 1003.56 1004.07 1004.55 1005.01 1005.44 1005.85 1006.24 1006.61 1006.96 1007.31 1007.63 1007.94 1008.24 1008.53 1008.83 1009.12 1009.42 1009.73 1010.05 1010.37 1010.70 1011.01 1011.31 1011.57 1011.79 1011.95 1012.07 1012.13 1012.15 1012.13 1012.10 1012.06
1002.23 1001.70 1001.35 1001.20 1001.23 1001.43 1001.77 1002.20 1002.70 1003.24 1003.80 1004.35 1004.89 1005.40 1005.89 1006.35 1006.78 1007.19 1007.57 1007.92 1008.25 1008.55 1008.83 1009.10 1009.36 1009.61 1009.87 1010.13 1010.41 1010.69 1010.97 1011.25 1011.52 1011.76 1011.96 1012.12 1012.22 1012.28 1012.28 1012.24 1012.18 1012.10 1012.02
1002.98 1002.52 1002.24 1002.12 1002.17 1002.37 1002.68 1003.09 1003.57 1004.09 1004.63 1005.18 1005.73 1006.26 1006.76 1007.25 1007.70 1008.12 1008.51 1008.87 1009.19 1009.48 1009.74 1009.98 1010.21 1010.44 1010.66 1010.89 1011.13 1011.38 1011.62 1011.86 1012.08 1012.28 1012.43 1012.54 1012.60 1012.61 1012.57 1012.50 1012.41 1012.30 1012.20
1003.93 1003.56 1003.32 1003.23 1003.28 1003.44 1003.72 1004.08 1004.50 1004.98 1005.48 1006.00 1006.53 1007.05 1007.56 1008.05 1008.51 1008.94 1009.34 1009.70 1010.01 1010.30 1010.55 1010.78 1010.99 1011.19 1011.40 1011.60 1011.82 1012.03 1012.25 1012.45 1012.64 1012.79 1012.92 1012.99 1013.03 1013.02 1012.97 1012.89 1012.79 1012.68 1012.57
1005.10 1004.79 1004.59 1004.50 1004.52 1004.65 1004.85 1005.14 1005.48 1005.88 1006.32 1006.78 1007.27 1007.75 1008.24 1008.72 1009.18 1009.60 1010.00 1010.35 1010.67 1010.95 1011.20 1011.42 1011.62 1011.81 1012.00 1012.19 1012.38 1012.57 1012.76 1012.94 1013.11 1013.24 1013.35 1013.41 1013.44 1013.44 1013.40 1013.34 1013.26 1013.17 1013.09
1006.41 1006.16 1005.98 1005.88 1005.86 1005.92 1006.04 1006.24 1006.49 1006.79 1007.14 1007.52 1007.94 1008.37 1008.81 1009.26 1009.69 1010.10 1010.48 1010.83 1011.13 1011.41 1011.65 1011.86 1012.06 1012.24 1012.42 1012.60 1012.77 1012.95 1013.12 1013.28 1013.43 1013.56 1013.66 1013.74 1013.78 1013.80 1013.80 1013.78 1013.75 1013.71 1013.66
Thickness
5677 5678 5679 5679 5679 5677 5675 5675 5673 5671 5667 5663 5660 5655 5650 5646 5641 5636 5633 5629 5625 5622 5618 5614 5611 5606 5602 5598 5593 5588 5583 5579 5580 5586 5576 5569 5560 5553 5545 5538 5531 5524 5518
5670 5670 5672 5672 5672 5671 5671 5671 5668 5665 5662 5659 5654 5650 5646 5642 5638 5633 5630 5625 5622 5619 5615 5611 5608 5602 5599 5594 5589 5585 5581 5576 5573 5575 5570 5559 5552 5545 5537 5529 5522 5516 5509
5660 5662 5663 5664 5665 5665 5666 5664 5661 5659 5656 5652 5649 5645 5642 5637 5633 5630 5626 5622 5619 5616 5612 5608 5604 5599 5596 5591 5586 5582 5577 5572 5567 5564 5563 5553 5543 5534 5526 5518 5511 5505 5499
5650 5653 5655 5657 5658 5658 5657 5655 5653 5651 5648 5646 5643 5640 5636 5632 5628 5624 5620 5617 5614 5610 5607 5603 5600 5596 5592 5587 5581 5577 5571 5566 5560 5556 5552 5544 5533 5523 5515 5509 5502 5496 5490
5638 5643 5647 5648 5648 5648 5647 5646 5644 5642 5640 5638 5635 5632 5629 5625 5622 5618 5613 5610 5607 5604 5600 5597 5594 5590 5585 5580 5575 5571 5564 5559 5554 5548 5543 5535 5525 5514 5509 5503 5496 5490 5482
5628 5632 5635 5636 5636 5637 5636 5635 5633 5631 5629 5627 5625 5622 5620 5617 5613 5608 5605 5601 5598 5595 5593 5589 5585 5580 5576 5570 5566 5562 5557 5553 5548 5542 5537 5530 5524 5515 5506 5496 5488 5480 5475
5615 5619 5621 5622 5623 5624 5623 5622 5622 5621 5619 5616 5615 5612 5611 5608 5603 5599 5594 5592 5590 5587 5584 5580 5575 5572 5566 5562 5557 5552 5547 5543 5539 5534 5529 5525 5517 5509 5498 5489 5481 5475 5469
5602 5605 5607 5608 5609 5610 5609 5610 5610 5609 5608 5606 5604 5602 5600 5598 5593 5589 5584 5580 5580 5578 5575 5570 5566 5562 5557 5552 5547 5541 5537 5533 5528 5523 5519 5515 5509 5501 5493 5484 5476 5464 5453
5588 5591 5593 5594 5595 5596 5596 5598 5597 5596 5595 5594 5592 5590 5588 5585 5581 5577 5572 5569 5568 5566 5562 5559 5555 5552 5547 5541 5535 5531 5526 5520 5516 5511 5507 5502 5496 5489 5482 5472 5462 5454 5446
5576 5578 5579 5579 5581 5583 5584 5584 5582 5581 5581 5579 5576 5575 5574 5572 5568 5565 5560 5558 5556 5553 5548 5545 5541 5539 5535 5529 5524 5520 5515 5510 5503 5497 5492 5487 5481 5475 5469 5463 5456 5447 5439
5559 5561 5563 5565 5566 5568 5569 5568 5566 5565 5563 5562 5561 5559 5557 5556 5554 5551 5548 5546 5544 5540 5536 5533 5529 5525 5521 5516 5512 5509 5505 5498 5491 5485 5479 5473 5467 5461 5455 5448 5442 5436 5430
5540 5544 5548 5549 5551 5552 5552 5552 5550 5549 5547 5546 5545 5543 5542 5540 5539 5537 5535 5533 5531 5527 5524 5520 5516 5512 5508 5504 5499 5496 5491 5484 5478 5472 5466 5460 5454 5448 5441 5434 5428 5421 5415
5521 5526 5530 5532 5533 5534 5536 5536 5535 5534 5534 5533 5532 5532 5530 5526 5525 5523 5521 5519 5516 5514 5511 5507 5503 5499 5495 5490 5485 5480 5475 5470 5465 5460 5455 5448 5441 5434 5427 5419 5412 5406 5399
5502 5508 5512 5514 5517 5517 5518 5519 5520 5521 5520 5520 5519 5519 5517 5513 5511 5508 5505 5503 5500 5498 5495 5491 5487 5483 5479 5475 5470 5465 5460 5456 5452 5447 5441 5433 5425 5418 5412 5406 5400 5393 5386
5484 5490 5494 5497 5500 5501 5501 5503 5504 5505 5507 5506 5506 5505 5503 5501 5499 5495 5492 5489 5487 5484 5479 5475 5471 5467 5463 5459 5454 5449 5445 5441 5436 5431 5425 5418 5411 5405 5398 5392 5386 5381 5375
5465 5471 5476 5479 5481 5483 5485 5484 5484 5485 5486 5487 5488 5487 5486 5485 5483 5480 5477 5474 5471 5468 5464 5461 5458 5454 5449 5445 5440 5435 5430 5425 5420 5415 5410 5405 5399 5393 5385 5378 5373 5368 5363
5445 5451 5456 5460 5463 5465 5467 5468 5467 5466 5466 5468 5469 5469 5468 5467 5465 5463 5460 5457 5454 5452 5449 5446 5443 5439 5434 5429 5424 5420 5415 5409 5404 5399 5394 5389 5383 5377 5371 5365 5359 5353 5348
5426 5431 5436 5440 5444 5446 5448 5449 5450 5451 5450 5448 5448 5449 5449 5448 5446 5445 5443 5440 5436 5434 5432 5429 5426 5421 5417 5412 5408 5403 5398 5392 5388 5383 5378 5373 5367 5362 5356 5351 5345 5339 5333
5406 5411 5416 5421 5423 5426 5427 5428 5429 5429 5429 5428 5428 5428 5427 5427 5426 5424 5423 5422 5420 5416 5412 5409 5406 5403 5399 5394 5390 5385 5381 5376 5372 5367 5362 5357 5351 5346 5341 5335 5330 5323 5316
5385 5390 5394 5399 5402 5404 5406 5407 5407 5407 5407 5407 5407 5407 5407 5406 5404 5402 5400 5399 5398 5395 5391 5389 5386 5383 5380 5376 5371 5367 5363 5358 5354 5349 5344 5339 5334 5330 5325 5318 5313 5307 5301
5363 5368 5373 5377 5380 5382 5384 5385 5386 5386 5386 5386 5385 5385 5386 5385 5383 5380 5378 5376 5374 5373 5370 5368 5364 5362 5359 5356 5352 5348 5344 5340 5335 5330 5325 5321 5315 5311 5306 5300 5295 5289 5284
5341 5346 5350 5353 5356 5358 5360 5361 5362 5363 5363 5362 5361 5361 5362 5360 5359 5357 5354 5352 5350 5348 5347 5346 5343 5340 5337 5335 5332 5329 5325 5321 5316 5311 5307 5301 5297 5292 5287 5281 5276 5271 5265
5319 5323 5327 5330 5333 5335 5336 5337 5338 5339 5339 5339 5338 5338 5337 5336 5335 5333 5331 5329 5327 5325 5324 5323 5321 5318 5315 5312 5310 5308 5304 5300 5296 5292 5287 5282 5277 5273 5268 5262 5257 5251 5246
5298 5302 5305 5308 5310 5312 5314 5314 5314 5315 5315 5315 5315 5315 5314 5312 5310 5309 5307 5306 5304 5303 5301 5300 5298 5295 5293 5290 5288 5285 5282 5278 5275 5271 5268 5263 5258 5253 5247 5242 5237 5232 5226
5276 5280 5283 5285 5287 5288 5290 5291 5291 5290 5290 5291 5291 5290 5289 5288 5286 5285 5284 5282 5281 5280 5278 5277 5275 5273 5271 5269 5266 5263 5260 5258 5254 5251 5247 5242 5238 5233 5227 5222 5217 5211 5206
5254 5256 5259 5261 5263 5265 5266 5267 5267 5266 5266 5266 5266 5266 5265 5264 5263 5262 5260 5259 5258 5257 5255 5254 5252 5250 5249 5246 5244 5242 5240 5237 5234 5230 5226 5222 5218 5213 5208 5203 5197 5192 5186